Date String (YYYY-MM-DD hh:mm:ss) UTC,Instrument flags,Ambient pressure (hPa),Sample flow (lpm),Bypass flow (lpm),Sample temperature (°C),Ambient temperature (°C),ASC tube jacket temperature (°C),LED temperature (°C),Box temperature (°C),Sample RH (%),Span deviation,Mass concentration (μg/m³),Mass concentration (μg/m³),Mass concentration (μg/m³)
DateTimeUTC,F1_M11,P_M11,Q1_M11,Q2_M11,T1_M11,T2_M11,T3_M11,T4_M11,T5_M11,U1_M11,ZSPAN_M11,X2_M11,X0_M11,X1_M11
2023-01-16 20:00:00,,0811.6,5.01,0.00,22.8,21.4,00.0,31.6,24.6,18.7,-002.8,0012.44,0017.75,0011.93
2023-01-16 20:01:00,,0811.6,5.01,0.00,22.8,21.4,00.0,31.6,24.6,18.6,-002.8,0012.52,0018.14,0011.98
2023-01-16 20:02:00,,0811.6,5.00,0.00,22.8,21.4,00.0,31.6,24.6,19.0,-002.6,0012.71,0018.66,0012.15
2023-01-16 20:03:00,,0811.6,5.03,0.00,22.8,21.5,00.0,31.6,24.6,18.9,-002.5,0012.81,0019.53,0012.24
2023-01-16 20:04:00,,0811.6,5.00,0.00,22.8,21.5,00.0,31.6,24.6,17.7,-002.3,0012.65,0019.17,0012.11
2023-01-16 20:05:00,,0811.6,5.00,0.00,22.8,21.5,00.0,31.6,24.6,16.9,-002.3,0012.37,0018.92,0011.86
2023-01-16 20:06:00,,0811.5,4.99,0.00,22.8,21.5,00.0,31.6,24.6,17.4,-002.4,0012.10,0018.67,0011.60
2023-01-16 20:07:00,,0811.6,4.99,0.00,22.8,21.5,00.0,31.6,24.6,17.0,-002.2,0011.90,0018.23,0011.38
2023-01-16 20:08:00,,0811.6,4.99,0.00,22.8,21.5,00.0,31.6,24.6,16.5,-002.0,0011.62,0017.69,0011.11
2023-01-16 20:09:00,,0811.5,5.00,0.00,22.8,21.5,00.0,31.6,24.6,16.7,-001.8,0011.31,0016.97,0010.78
2023-01-16 20:10:00,,0811.5,5.00,0.00,22.8,21.5,00.0,31.6,24.6,16.9,-001.8,0010.97,0016.19,0010.44
2023-01-16 20:11:00,,0811.5,5.00,0.00,22.8,21.6,00.0,31.6,24.7,17.5,-001.5,0010.72,0016.05,0010.19
2023-01-16 20:12:00,,0811.5,5.01,0.00,22.8,21.6,00.0,31.7,24.7,17.5,-001.9,0010.50,0015.57,0009.98
2023-01-16 20:13:00,,0811.6,5.00,0.00,22.8,21.6,00.0,31.7,24.7,18.0,-002.3,0010.34,0015.05,0009.82
2023-01-16 20:14:00,,0811.6,5.01,0.00,22.8,21.6,00.0,31.7,24.7,18.4,-002.0,0010.28,0014.29,0009.75
2023-01-16 20:15:00,,0811.6,4.99,0.00,22.8,21.5,00.0,31.7,24.7,18.5,-002.1,0010.45,0014.33,0009.90
2023-01-16 20:16:00,,0811.6,5.00,0.00,22.8,21.5,00.0,31.7,24.7,18.5,-002.1,0010.84,0014.78,0010.26
2023-01-16 20:17:00,,0811.6,5.00,0.00,22.8,21.5,00.0,31.7,24.7,18.4,-002.1,0011.13,0015.19,0010.56
2023-01-16 20:18:00,,0811.7,5.00,0.00,22.8,21.4,00.0,31.7,24.7,18.1,-002.3,0011.45,0015.65,0010.87
2023-01-16 20:19:00,,0811.6,5.01,0.00,22.8,21.4,00.0,31.7,24.7,18.1,-002.6,0011.84,0016.10,0011.26
2023-01-16 20:20:00,,0811.6,4.99,0.00,22.8,21.4,00.0,31.7,24.7,18.2,-002.6,0012.29,0016.58,0011.69
2023-01-16 20:21:00,,0811.6,5.00,0.00,22.8,21.4,00.0,31.7,24.7,18.0,-002.6,0012.66,0016.93,0012.08
2023-01-16 20:22:00,,0811.6,4.99,0.00,22.8,21.4,00.0,31.7,24.7,18.1,-002.8,0012.96,0017.52,0012.37
2023-01-16 20:23:00,,0811.6,5.00,0.00,22.8,21.4,00.0,31.7,24.6,18.1,-002.6,0013.21,0018.10,0012.62
2023-01-16 20:24:00,,0811.6,5.01,0.00,22.8,21.4,00.0,31.7,24.6,17.9,-002.5,0013.29,0018.24,0012.71
2023-01-16 20:25:00,,0811.6,5.01,0.00,22.8,21.4,00.0,31.7,24.6,18.2,-002.7,0013.47,0018.42,0012.91
2023-01-16 20:26:00,,0811.6,5.01,0.00,22.8,21.4,00.0,31.7,24.7,17.5,-002.8,0013.58,0018.54,0013.03
2023-01-16 20:27:00,,0811.7,5.01,0.00,22.8,21.4,00.0,31.7,24.7,18.0,-002.5,0013.71,0018.59,0013.17
2023-01-16 20:28:00,,0811.7,5.01,0.00,22.8,21.5,00.0,31.7,24.7,18.1,-002.5,0013.90,0018.72,0013.36
2023-01-16 20:29:00,,0811.7,5.00,0.00,22.8,21.5,00.0,31.7,24.7,17.9,-002.7,0014.06,0018.83,0013.52
2023-01-16 20:30:00,,0811.7,4.99,0.00,22.8,21.5,00.0,31.7,24.7,17.8,-002.5,0014.25,0018.99,0013.73
2023-01-16 20:31:00,,0811.7,5.00,0.00,22.8,21.6,00.0,31.7,24.7,17.9,-002.3,0014.46,0019.21,0013.91
2023-01-16 20:32:00,,0811.7,4.99,0.00,22.9,21.6,00.0,31.7,24.7,17.9,-002.1,0014.75,0019.77,0014.14
2023-01-16 20:33:00,,0811.7,4.99,0.00,22.9,21.6,00.0,31.7,24.7,17.9,-002.0,0015.00,0019.70,0014.39
2023-01-16 20:34:00,,0811.9,4.97,0.00,22.9,21.6,00.0,31.7,24.8,17.9,-001.8,0015.24,0019.69,0014.63
2023-01-16 20:35:00,,0811.9,4.99,0.00,22.9,21.6,00.0,31.7,24.7,18.0,-002.0,0015.53,0019.90,0014.93
2023-01-16 20:36:00,,0811.9,5.00,0.00,22.9,21.6,00.0,31.7,24.7,17.9,-002.0,0015.62,0020.02,0015.03
2023-01-16 20:37:00,,0811.9,5.00,0.00,22.9,21.6,00.0,31.7,24.7,18.1,-002.0,0015.73,0020.20,0015.14
2023-01-16 20:38:00,,0811.8,5.00,0.00,22.9,21.6,00.0,31.7,24.7,17.2,-002.0,0015.67,0020.22,0015.10
2023-01-16 20:39:00,,0811.9,4.98,0.00,22.9,21.6,00.0,31.7,24.8,17.2,-002.1,0015.52,0020.12,0014.97
2023-01-16 20:40:00,,0811.9,5.02,0.00,22.9,21.6,00.0,31.7,24.8,16.3,-001.7,0015.28,0020.01,0014.73
2023-01-16 20:41:00,,0811.9,5.00,0.00,22.9,21.6,00.0,31.7,24.8,16.3,-001.7,0014.94,0019.63,0014.41
2023-01-16 20:42:00,,0811.8,4.99,0.00,22.9,21.6,00.0,31.7,24.8,16.5,-001.9,0014.61,0019.34,0014.10
2023-01-16 20:43:00,,0811.9,5.01,0.00,22.9,21.7,00.0,31.7,24.8,16.7,-002.0,0014.24,0019.95,0013.78
2023-01-16 20:44:00,,0811.8,4.99,0.00,22.9,21.7,00.0,31.7,24.8,16.5,-002.1,0013.86,0019.47,0013.44
2023-01-16 20:45:00,,0811.8,5.00,0.00,22.9,21.8,00.0,31.7,24.8,16.4,-002.2,0013.47,0018.96,0013.07
2023-01-16 20:46:00,,0811.9,5.01,0.00,23.0,21.8,00.0,31.7,24.8,16.0,-002.0,0012.99,0018.41,0012.60
2023-01-16 20:47:00,,0811.9,5.02,0.00,23.0,21.9,00.0,31.8,24.9,16.3,-001.9,0012.54,0017.87,0012.18
2023-01-16 20:48:00,,0811.8,4.99,0.00,23.0,21.9,00.0,31.8,24.9,16.1,-001.9,0012.11,0017.32,0011.77
2023-01-16 20:49:00,,0811.9,4.99,0.00,23.0,21.9,00.0,31.8,24.9,16.5,-002.2,0011.87,0017.01,0011.53
2023-01-16 20:50:00,,0812.0,5.00,0.00,23.0,22.0,00.0,31.8,24.9,16.2,-002.0,0011.62,0016.68,0011.28
2023-01-16 20:51:00,,0812.0,5.00,0.00,23.1,22.0,00.0,31.8,25.0,16.0,-001.9,0011.46,0016.29,0011.13
2023-01-16 20:52:00,,0812.0,5.00,0.00,23.1,22.0,00.0,31.8,24.9,16.5,-001.5,0011.43,0016.19,0011.12
2023-01-16 20:53:00,,0812.0,5.00,0.00,23.1,22.1,00.0,31.8,25.0,16.2,-001.2,0011.33,0016.07,0011.04
2023-01-16 20:54:00,,0812.0,5.00,0.00,23.1,22.1,00.0,31.9,25.0,16.2,-000.5,0011.20,0014.72,0010.90
2023-01-16 20:55:00,,0812.0,5.03,0.00,23.2,22.1,00.0,31.9,25.0,16.2,-000.5,0011.10,0014.52,0010.79
2023-01-16 20:56:00,,0811.9,4.98,0.00,23.2,22.1,00.0,31.9,25.0,16.0,-000.6,0010.96,0014.35,0010.66
2023-01-16 20:57:00,,0812.0,5.00,0.00,23.2,22.2,00.0,31.9,25.0,15.8,-001.0,0010.88,0014.30,0010.54
2023-01-16 20:58:00,,0812.0,4.97,0.00,23.3,22.2,00.0,31.9,25.0,15.8,-001.0,0010.80,0014.32,0010.43
2023-01-16 20:59:00,,0812.1,4.97,0.00,23.3,22.2,00.0,32.0,25.1,15.8,-000.1,0010.68,0014.20,0010.30
